QPF
0.00 0.00 0.00 0.00 0.00 0.00 0.00 0.00 0.00 0.00 0.00 0.00 0.00 0.00 0.00 0.00 0.00 0.00 0.00 0.00 0.00 0.00 0.00 0.00 0.00 0.00 0.00 0.00 0.00 0.00 0.00 0.00 0.00 0.00 0.00 0.00 0.00 0.00 0.00 0.00 0.00 0.00 0.00 0.00 0.00 0.00 0.00
0.00 0.00 0.00 0.00 0.00 0.00 0.00 0.00 0.00 0.00 0.00 0.00 0.00 0.00 0.00 0.00 0.00 0.00 0.00 0.00 0.00 0.00 0.00 0.00 0.00 0.00 0.00 0.00 0.00 0.00 0.00 0.00 0.00 0.00 0.00 0.00 0.00 0.00 0.00 0.00 0.00 0.00 0.00 0.00 0.00 0.00 0.00
0.00 0.00 0.00 0.00 0.00 0.00 0.00 0.00 0.00 0.00 0.00 0.00 0.00 0.00 0.00 0.00 0.00 0.00 0.00 0.00 0.00 0.00 0.00 0.00 0.00 0.00 0.00 0.00 0.00 0.00 0.00 0.00 0.00 0.00 0.00 0.00 0.00 0.00 0.00 0.00 0.00 0.00 0.00 0.00 0.00 0.00 0.00
0.00 0.00 0.00 0.00 0.00 0.00 0.00 0.00 0.00 0.00 0.00 0.00 0.00 0.00 0.00 0.00 0.00 0.00 0.00 0.00 0.00 0.00 0.00 0.00 0.00 0.00 0.00 0.00 0.00 0.00 0.00 0.00 0.00 0.00 0.00 0.00 0.00 0.00 0.00 0.00 0.00 0.00 0.00 0.00 0.00 0.00 0.00
0.00 0.00 0.00 0.00 0.00 0.00 0.00 0.00 0.00 0.00 0.00 0.00 0.00 0.00 0.00 0.00 0.00 0.00 0.00 0.00 0.00 0.00 0.00 0.00 0.00 0.00 0.00 0.00 0.00 0.00 0.00 0.00 0.00 0.00 0.00 0.00 0.00 0.00 0.00 0.00 0.00 0.00 0.00 0.00 0.00 0.00 0.00
0.00 0.00 0.00 0.00 0.00 0.00 0.00 0.00 0.00 0.00 0.00 0.00 0.00 0.00 0.00 0.00 0.00 0.00 0.00 0.00 0.00 0.00 0.00 0.00 0.00 0.00 0.00 0.00 0.00 0.00 0.00 0.00 0.00 0.00 0.00 0.00 0.00 0.00 0.00 0.00 0.00 0.00 0.00 0.00 0.00 0.00 0.00
0.00 0.00 0.00 0.00 0.00 0.00 0.00 0.00 0.00 0.00 0.00 0.00 0.00 0.00 0.00 0.00 0.00 0.00 0.00 0.00 0.00 0.00 0.00 0.00 0.00 0.00 0.00 0.00 0.00 0.00 0.00 0.00 0.00 0.00 0.00 0.00 0.00 0.00 0.00 0.00 0.00 0.00 0.00 0.00 0.00 0.00 0.00
0.00 0.00 0.00 0.00 0.00 0.00 0.00 0.00 0.00 0.00 0.00 0.00 0.00 0.00 0.00 0.00 0.00 0.00 0.00 0.00 0.00 0.00 0.00 0.00 0.00 0.00 0.00 0.00 0.00 0.00 0.00 0.00 0.00 0.00 0.00 0.00 0.00 0.00 0.00 0.00 0.00 0.00 0.00 0.00 0.00 0.00 0.00
0.00 0.00 0.00 0.00 0.00 0.00 0.00 0.00 0.00 0.00 0.00 0.00 0.00 0.00 0.00 0.00 0.00 0.00 0.00 0.00 0.00 0.00 0.00 0.00 0.00 0.00 0.00 0.00 0.00 0.00 0.00 0.00 0.00 0.00 0.00 0.00 0.00 0.00 0.00 0.00 0.00 0.00 0.00 0.00 0.00 0.00 0.00
0.00 0.00 0.00 0.00 0.00 0.00 0.00 0.00 0.00 0.00 0.00 0.00 0.00 0.00 0.00 0.00 0.00 0.00 0.00 0.00 0.00 0.00 0.00 0.00 0.00 0.00 0.00 0.00 0.00 0.00 0.00 0.00 0.00 0.00 0.00 0.00 0.00 0.00 0.00 0.00 0.00 0.00 0.00 0.00 0.00 0.00 0.00
0.00 0.00 0.00 0.00 0.00 0.00 0.00 0.00 0.00 0.00 0.00 0.00 0.00 0.00 0.00 0.00 0.00 0.00 0.00 0.00 0.00 0.00 0.00 0.00 0.00 0.00 0.00 0.00 0.00 0.00 0.00 0.00 0.00 0.00 0.00 0.00 0.00 0.00 0.00 0.00 0.00 0.00 0.00 0.00 0.00 0.00 0.00
0.00 0.00 0.00 0.00 0.00 0.00 0.00 0.00 0.00 0.00 0.00 0.00 0.00 0.00 0.00 0.00 0.00 0.00 0.00 0.00 0.00 0.00 0.00 0.00 0.00 0.00 0.00 0.00 0.00 0.00 0.00 0.00 0.00 0.00 0.00 0.00 0.00 0.00 0.00 0.00 0.00 0.00 0.00 0.00 0.00 0.00 0.00
0.00 0.00 0.00 0.00 0.00 0.00 0.00 0.00 0.00 0.00 0.00 0.00 0.00 0.00 0.00 0.00 0.00 0.00 0.00 0.00 0.00 0.00 0.00 0.00 0.00 0.00 0.00 0.00 0.00 0.00 0.00 0.00 0.00 0.00 0.00 0.00 0.00 0.00 0.00 0.00 0.00 0.00 0.00 0.00 0.00 0.00 0.00
0.00 0.00 0.00 0.00 0.00 0.00 0.00 0.00 0.00 0.00 0.00 0.00 0.00 0.00 0.00 0.00 0.00 0.00 0.00 0.00 0.00 0.00 0.00 0.00 0.00 0.00 0.00 0.00 0.00 0.00 0.00 0.00 0.00 0.00 0.00 0.00 0.00 0.00 0.00 0.00 0.00 0.00 0.00 0.00 0.00 0.00 0.00
0.00 0.00 0.00 0.01 0.00 0.00 0.00 0.00 0.00 0.00 0.00 0.00 0.00 0.00 0.00 0.00 0.00 0.00 0.00 0.00 0.00 0.00 0.00 0.00 0.00 0.00 0.00 0.00 0.00 0.00 0.00 0.00 0.00 0.00 0.00 0.00 0.00 0.00 0.00 0.00 0.00 0.00 0.00 0.00 0.00 0.00 0.00
0.01 0.01 0.01 0.00 0.00 0.00 0.00 0.00 0.00 0.00 0.00 0.00 0.00 0.00 0.00 0.00 0.00 0.00 0.00 0.00 0.00 0.00 0.00 0.00 0.00 0.00 0.00 0.00 0.00 0.00 0.00 0.00 0.00 0.00 0.00 0.00 0.00 0.00 0.00 0.00 0.00 0.00 0.00 0.00 0.00 0.00 0.00
0.00 0.00 0.00 0.00 0.00 0.00 0.00 0.00 0.00 0.00 0.00 0.00 0.00 0.00 0.00 0.00 0.00 0.00 0.00 0.00 0.00 0.00 0.00 0.00 0.00 0.00 0.00 0.00 0.00 0.00 0.00 0.00 0.00 0.00 0.00 0.00 0.00 0.00 0.00 0.00 0.00 0.00 0.00 0.00 0.00 0.00 0.00
0.00 0.00 0.00 0.00 0.00 0.00 0.00 0.00 0.00 0.00 0.00 0.00 0.00 0.00 0.00 0.00 0.00 0.00 0.00 0.00 0.00 0.00 0.00 0.00 0.00 0.00 0.00 0.00 0.00 0.00 0.00 0.00 0.00 0.00 0.00 0.00 0.00 0.00 0.00 0.00 0.00 0.00 0.00 0.00 0.00 0.00 0.00
0.00 0.00 0.00 0.01 0.01 0.00 0.00 0.00 0.00 0.00 0.00 0.00 0.00 0.00 0.00 0.00 0.00 0.00 0.00 0.00 0.00 0.00 0.00 0.00 0.00 0.00 0.00 0.00 0.00 0.00 0.00 0.00 0.00 0.00 0.00 0.00 0.00 0.00 0.00 0.00 0.00 0.00 0.00 0.00 0.00 0.00 0.00
0.00 0.00 0.00 0.00 0.00 0.00 0.01 0.01 0.01 0.00 0.00 0.00 0.00 0.00 0.00 0.00 0.00 0.00 0.00 0.00 0.00 0.00 0.00 0.00 0.00 0.00 0.00 0.00 0.00 0.00 0.00 0.00 0.00 0.00 0.00 0.00 0.00 0.00 0.00 0.00 0.00 0.00 0.00 0.00 0.00 0.00 0.00
0.00 0.00 0.00 0.00 0.00 0.01 0.02 0.03 0.03 0.02 0.01 0.01 0.01 0.00 0.00 0.00 0.00 0.01 0.00 0.00 0.00 0.00 0.00 0.00 0.00 0.00 0.00 0.00 0.00 0.00 0.00 0.00 0.00 0.00 0.00 0.00 0.00 0.00 0.00 0.00 0.00 0.00 0.00 0.00 0.00 0.00 0.00
0.01 0.00 0.00 0.01 0.01 0.01 0.01 0.03 0.05 0.03 0.00 0.02 0.03 0.02 0.01 0.00 0.00 0.00 0.00 0.00 0.00 0.00 0.00 0.00 0.00 0.00 0.00 0.00 0.00 0.00 0.00 0.00 0.00 0.00 0.00 0.00 0.00 0.00 0.00 0.00 0.00 0.00 0.00 0.00 0.00 0.00 0.00
0.01 0.02 0.02 0.02 0.02 0.02 0.02 0.03 0.04 0.03 0.01 0.04 0.04 0.04 0.02 0.00 0.00 0.00 0.00 0.00 0.00 0.00 0.00 0.00 0.00 0.00 0.00 0.00 0.00 0.00 0.00 0.00 0.00 0.00 0.00 0.00 0.00 0.00 0.00 0.00 0.00 0.00 0.00 0.00 0.00 0.00 0.00
0.01 0.02 0.02 0.03 0.02 0.02 0.03 0.02 0.03 0.06 0.03 0.05 0.06 0.04 0.03 0.01 0.01 0.00 0.00 0.00 0.00 0.00 0.00 0.00 0.00 0.01 0.00 0.00 0.00 0.00 0.00 0.00 0.00 0.00 0.00 0.00 0.00 0.00 0.00 0.00 0.01 0.00 0.00 0.00 0.00 0.00 0.00
0.01 0.01 0.02 0.02 0.02 0.02 0.04 0.03 0.03 0.06 0.05 0.05 0.08 0.16 0.08 0.01 0.01 0.00 0.00 0.00 0.00 0.00 0.00 0.00 0.00 0.00 0.00 0.00 0.00 0.00 0.00 0.00 0.00 0.00 0.00 0.00 0.00 0.00 0.00 0.00 0.01 0.00 0.00 0.00 0.00 0.00 0.00
0.01 0.02 0.02 0.02 0.02 0.03 0.05 0.04 0.04 0.07 0.08 0.06 0.08 0.08 0.08 0.03 0.01 0.01 0.01 0.00 0.00 0.00 0.00 0.00 0.00 0.00 0.00 0.00 0.00 0.00 0.00 0.00 0.00 0.00 0.00 0.00 0.00 0.00 0.00 0.00 0.00 0.00 0.00 0.00 0.00 0.00 0.00
0.01 0.02 0.02 0.03 0.04 0.04 0.03 0.03 0.03 0.05 0.06 0.06 0.07 0.14 0.15 0.09 0.00 0.00 0.01 0.01 0.00 0.02 0.01 0.01 0.00 0.00 0.00 0.01 0.01 0.00 0.00 0.00 0.00 0.00 0.00 0.00 0.00 0.00 0.00 0.00 0.00 0.00 0.00 0.00 0.00 0.00 0.00
0.02 0.02 0.02 0.03 0.03 0.04 0.05 0.03 0.05 0.07 0.05 0.05 0.06 0.08 0.09 0.06 0.00 0.00 0.00 0.00 0.00 0.00 0.01 0.04 0.01 0.01 0.01 0.06 0.06 0.00 0.00 0.00 0.00 0.00 0.00 0.00 0.00 0.00 0.00 0.00 0.00 0.00 0.00 0.00 0.00 0.00 0.00
0.02 0.01 0.01 0.02 0.04 0.05 0.05 0.06 0.05 0.02 0.02 0.03 0.04 0.07 0.13 0.11 0.01 0.00 0.00 0.00 0.00 0.00 0.00 0.00 0.01 0.00 0.01 0.04 0.12 0.08 0.10 0.05 0.00 0.00 0.00 0.00 0.00 0.00 0.00 0.00 0.00 0.00 0.00 0.00 0.00 0.00 0.00
MSLP
1024.22 1023.83 1023.46 1023.07 1022.63 1022.19 1021.72 1021.21 1020.71 1020.26 1019.80 1019.24 1018.71 1018.19 1017.61 1016.96 1016.27 1015.54 1014.94 1014.45 1013.86 1013.26 1012.86 1012.48 1012.05 1011.58 1010.58 1007.13 1003.61 1003.34 1003.89 1004.47 1004.43 1004.07 1003.06 1001.98 1001.48 1000.90 1000.12 999.33 998.74 998.34 998.06 998.06 998.22 998.67 998.59
1024.37 1023.98 1023.57 1023.10 1022.65 1022.21 1021.79 1021.29 1020.73 1020.23 1019.72 1019.15 1018.59 1018.01 1017.40 1016.72 1016.02 1015.28 1014.67 1014.15 1013.64 1013.01 1012.46 1012.07 1011.75 1011.59 1009.60 1005.10 1001.72 1002.28 1002.87 1003.30 1002.96 1003.07 1002.39 1001.83 1000.91 1000.63 999.87 999.14 998.18 997.87 997.82 997.83 997.92 997.89 998.66
1024.48 1024.05 1023.63 1023.15 1022.64 1022.18 1021.73 1021.20 1020.73 1020.24 1019.71 1019.15 1018.51 1017.86 1017.27 1016.54 1015.75 1014.93 1014.22 1013.66 1013.18 1012.58 1011.97 1011.44 1011.22 1010.75 1007.43 1003.35 1001.46 1001.86 1002.31 1002.01 1001.81 1001.99 1001.48 1001.40 1001.09 1000.45 999.94 998.86 998.29 997.94 997.82 997.73 997.87 997.73 998.31
1024.58 1024.19 1023.72 1023.26 1022.87 1022.48 1022.04 1021.55 1020.93 1020.38 1019.88 1019.22 1018.44 1017.72 1017.07 1016.31 1015.52 1014.72 1013.92 1013.07 1012.45 1011.90 1011.23 1010.86 1010.70 1009.52 1004.99 1001.14 1001.24 1001.25 1001.76 1001.64 1001.50 1001.33 1001.23 1000.65 1001.00 1000.41 999.64 999.04 998.12 997.82 997.52 996.65 996.51 997.42 997.97
1024.75 1024.30 1023.84 1023.38 1022.92 1022.45 1021.99 1021.54 1021.02 1020.43 1019.85 1019.19 1018.47 1017.64 1016.92 1015.88 1014.99 1014.19 1013.53 1012.51 1011.79 1011.23 1010.77 1010.60 1009.78 1007.61 1002.81 1001.66 1001.23 1000.78 1000.91 1000.73 1000.71 1000.81 1000.96 1000.91 1000.89 1000.43 1000.03 999.10 997.91 997.18 996.39 996.02 996.22 996.93 997.58
1024.61 1024.22 1023.79 1023.33 1022.89 1022.44 1021.93 1021.40 1020.87 1020.28 1019.66 1019.05 1018.34 1017.40 1016.84 1015.80 1014.78 1013.73 1012.64 1011.42 1010.85 1010.82 1010.49 1009.38 1007.92 1006.05 1001.78 999.80 999.53 999.73 999.90 1000.10 1000.08 1000.37 1000.75 1000.73 1000.33 999.76 999.32 998.09 996.74 996.16 995.90 994.93 995.19 996.34 997.08
1024.60 1024.18 1023.76 1023.32 1022.87 1022.39 1021.84 1021.24 1020.64 1020.08 1019.45 1018.86 1018.18 1017.33 1016.42 1015.45 1014.41 1013.65 1012.28 1009.10 1009.70 1009.10 1007.41 1004.37 1002.39 1000.79 999.35 999.12 999.30 999.66 999.62 999.70 999.73 999.92 999.37 999.51 998.95 997.63 997.68 997.34 996.86 995.68 994.90 994.40 994.53 995.18 996.63
1024.40 1024.02 1023.61 1023.13 1022.65 1022.19 1021.73 1021.19 1020.58 1019.98 1019.32 1018.54 1017.97 1017.22 1016.15 1015.26 1014.08 1013.17 1012.49 1008.59 1007.50 1007.57 1004.79 1002.52 1000.98 999.84 999.06 998.86 998.64 998.77 999.03 999.20 998.94 998.59 998.83 998.30 997.16 997.14 997.35 997.10 996.62 995.63 994.60 994.12 994.22 994.78 995.93
1024.20 1023.78 1023.40 1022.91 1022.44 1022.05 1021.62 1021.17 1020.65 1020.01 1019.36 1018.58 1017.81 1017.28 1016.22 1014.78 1013.24 1012.15 1009.90 1008.33 1007.71 1007.03 1004.23 999.72 998.23 997.78 997.48 998.10 997.67 997.63 998.12 998.22 997.91 997.72 997.25 996.32 996.17 996.80 996.50 996.22 995.91 995.40 994.56 993.90 993.84 994.52 996.24
1024.02 1023.64 1023.30 1022.87 1022.33 1021.89 1021.42 1020.94 1020.41 1019.80 1019.18 1018.54 1017.71 1017.14 1016.49 1015.06 1012.56 1010.41 1008.17 1007.91 1007.77 1007.18 1003.33 997.54 996.53 996.27 996.63 997.00 996.69 996.81 996.39 997.17 997.24 996.69 996.65 996.05 995.65 995.65 995.81 995.45 995.56 994.83 995.08 994.29 993.91 994.88 995.08
1023.93 1023.49 1023.09 1022.62 1022.11 1021.66 1021.28 1020.76 1020.20 1019.55 1018.92 1018.25 1017.55 1016.65 1016.46 1016.18 1013.69 1010.40 1008.36 1008.19 1007.82 1006.85 1001.17 995.36 995.37 995.18 995.46 995.85 995.01 995.31 995.79 996.23 995.96 995.87 995.92 994.92 994.97 994.63 994.73 994.55 995.12 994.69 994.65 994.53 994.12 993.89 995.84
1023.54 1023.13 1022.71 1022.28 1021.90 1021.43 1020.97 1020.51 1019.97 1019.35 1018.64 1017.91 1017.14 1016.35 1016.13 1013.30 1012.49 1010.04 1009.23 1008.79 1007.70 1004.72 998.16 994.92 994.69 995.02 994.94 994.78 994.59 995.18 995.20 995.60 995.81 995.51 995.26 994.68 994.63 994.58 994.12 994.71 994.82 995.20 994.67 994.30 994.21 993.83 992.97
1023.16 1022.74 1022.35 1021.99 1021.61 1021.18 1020.61 1020.06 1019.46 1018.78 1018.12 1017.42 1016.54 1015.74 1015.40 1014.48 1010.38 1008.88 1008.83 1007.74 1005.38 1000.55 995.88 993.88 993.61 993.81 993.79 993.27 993.62 994.43 994.66 994.43 994.34 994.44 994.06 994.31 993.66 993.83 993.91 994.31 994.55 994.84 994.50 993.85 993.33 992.76 992.45
1022.77 1022.37 1021.90 1021.55 1021.23 1020.75 1020.15 1019.70 1019.07 1018.36 1017.69 1016.89 1015.83 1014.54 1012.35 1011.16 1010.06 1009.98 1009.30 1006.94 1002.16 997.11 995.53 993.16 992.86 992.91 992.69 992.16 992.46 993.01 993.50 993.48 993.79 993.32 992.72 992.83 992.69 992.96 993.19 993.16 993.50 993.52 993.49 992.71 992.27 991.91 991.88
1022.41 1021.95 1021.51 1021.14 1020.80 1020.45 1020.05 1019.65 1019.14 1018.45 1017.68 1016.67 1015.32 1011.96 1009.83 1008.62 1009.15 1009.62 1008.15 1003.91 998.99 997.49 994.86 993.71 992.96 992.30 991.91 991.95 991.98 992.05 992.13 992.18 992.31 992.75 991.96 991.30 991.63 992.17 992.61 993.27 993.73 992.59 992.32 992.73 992.33 991.73 991.31
1021.98 1021.59 1021.22 1020.83 1020.48 1020.13 1019.78 1019.35 1018.85 1018.30 1017.64 1016.65 1015.06 1011.65 1008.25 1007.64 1008.92 1008.73 1006.54 1001.32 998.60 997.26 995.32 994.33 992.79 992.14 991.53 991.35 991.41 991.44 990.83 991.00 991.04 991.45 991.86 991.19 990.91 991.16 991.79 992.89 992.87 992.27 992.20 992.26 991.43 990.73 989.98
1021.70 1021.29 1020.86 1020.44 1020.05 1019.73 1019.34 1018.91 1018.51 1018.04 1017.52 1016.22 1014.25 1009.90 1007.17 1007.77 1008.41 1007.25 1003.32 1000.69 999.74 998.20 996.65 995.71 993.77 992.67 991.65 991.09 990.73 990.21 990.39 990.48 990.24 990.37 991.07 991.37 990.88 990.67 991.10 990.51 990.93 991.69 991.01 990.76 991.36 991.17 990.01
1021.33 1020.90 1020.47 1019.98 1019.62 1019.21 1018.85 1018.53 1018.25 1017.99 1017.53 1015.68 1013.45 1009.42 1006.88 1007.52 1006.79 1004.76 1002.41 1001.44 1000.25 998.00 996.90 996.24 995.30 993.75 992.85 991.72 991.06 990.17 989.55 989.39 989.34 989.99 989.79 990.62 990.64 990.18 989.67 990.29 990.93 991.05 990.77 990.88 990.11 990.41 989.95
1021.03 1020.57 1020.05 1019.58 1019.20 1018.79 1018.52 1018.22 1018.07 1017.94 1017.80 1016.18 1012.94 1009.40 1007.35 1006.65 1005.20 1003.69 1002.47 1000.93 999.84 998.66 997.51 996.60 995.49 995.14 994.31 993.17 991.92 991.07 990.23 989.59 989.90 990.19 989.42 990.30 990.32 989.83 990.06 989.94 989.85 989.72 989.94 989.67 989.89 989.87 988.92
1020.65 1020.10 1019.64 1019.17 1018.79 1018.41 1018.12 1017.89 1017.81 1017.70 1017.62 1017.17 1014.05 1008.93 1005.84 1005.47 1005.18 1004.08 1002.96 1001.29 1000.05 999.07 998.54 998.06 996.84 995.85 994.92 994.00 992.83 991.89 990.98 990.14 990.07 990.95 991.23 990.53 989.75 989.40 988.19 988.76 988.94 989.30 989.58 989.54 989.18 988.51 988.54
1020.04 1019.57 1019.13 1018.71 1018.32 1018.00 1017.73 1017.43 1017.32 1017.29 1017.31 1017.44 1014.40 1010.41 1008.13 1006.12 1004.54 1005.77 1005.30 1004.09 1002.28 1001.48 1000.19 999.57 998.28 996.87 995.33 994.15 993.76 992.41 991.70 990.67 990.45 990.93 991.57 990.70 989.79 989.39 989.27 988.73 988.57 988.34 988.63 988.88 988.63 988.29 987.93
1019.42 1018.88 1018.40 1018.04 1017.83 1017.51 1017.31 1016.94 1016.87 1016.76 1016.96 1017.03 1015.02 1012.19 1010.75 1009.18 1007.75 1006.81 1006.27 1005.16 1003.55 1003.10 1002.42 1001.33 999.40 997.92 996.86 995.24 994.38 993.13 992.21 991.18 990.08 990.59 990.92 990.64 989.97 989.86 989.20 989.04 988.94 988.27 987.92 988.14 988.36 988.42 988.03
1018.83 1018.27 1017.84 1017.35 1017.11 1016.85 1016.58 1016.48 1016.45 1016.47 1016.67 1016.24 1015.29 1013.89 1012.60 1010.37 1008.73 1007.07 1005.72 1005.42 1004.53 1003.27 1003.27 1003.19 1001.92 1000.96 998.84 997.34 996.84 995.45 993.81 991.70 990.94 990.65 990.73 990.54 990.22 990.35 989.38 989.28 988.77 988.48 987.75 987.56 987.53 987.61 987.90
1018.27 1017.72 1017.12 1016.70 1016.38 1016.09 1015.92 1015.83 1015.90 1015.89 1016.00 1015.80 1015.43 1015.23 1013.59 1010.79 1009.17 1007.86 1007.16 1005.49 1005.68 1004.37 1004.25 1003.03 1002.86 1003.09 1001.49 1000.41 998.21 996.17 994.70 993.23 992.44 991.59 991.14 990.68 990.62 990.63 990.01 989.52 988.78 987.56 988.20 987.72 987.67 987.56 987.58
1017.62 1017.08 1016.53 1016.10 1015.68 1015.41 1015.19 1015.15 1015.08 1015.07 1015.18 1015.32 1015.19 1015.42 1014.52 1012.15 1010.15 1008.70 1007.44 1006.47 1005.77 1005.20 1004.30 1004.02 1003.81 1003.69 1003.49 1001.61 998.97 996.23 994.87 994.13 993.29 993.11 992.41 991.49 991.22 991.08 990.15 989.27 989.90 989.00 989.28 988.48 988.57 987.50 986.98
1016.90 1016.34 1015.94 1015.51 1015.10 1014.83 1014.61 1014.45 1014.32 1014.30 1014.32 1014.45 1014.28 1014.65 1014.43 1013.29 1010.54 1009.60 1009.10 1008.04 1006.47 1004.98 1003.60 1002.77 1003.14 1003.90 1004.12 1002.43 1000.12 997.09 994.99 993.93 993.57 993.09 992.77 992.32 992.11 991.41 990.22 989.38 988.17 988.24 989.59 989.69 989.40 988.47 987.92
1016.21 1015.77 1015.38 1014.93 1014.56 1014.29 1014.11 1013.99 1013.79 1013.69 1013.60 1013.70 1013.73 1014.06 1014.08 1013.05 1011.09 1010.15 1008.77 1008.28 1007.12 1006.69 1004.92 1004.21 1003.41 1003.76 1003.88 1002.51 1000.34 998.16 996.04 994.47 993.23 992.03 991.51 991.32 991.32 990.69 990.57 989.44 989.00 989.64 989.93 990.33 990.33 990.36 989.89
1015.61 1015.17 1014.80 1014.48 1014.13 1013.79 1013.59 1013.48 1013.33 1013.16 1013.14 1013.29 1012.75 1012.80 1013.49 1012.18 1010.80 1009.75 1008.50 1007.49 1006.69 1005.49 1004.95 1005.00 1002.95 1003.78 1003.51 1002.85 1001.21 998.84 996.55 994.25 992.99 991.16 990.32 990.07 990.21 989.83 990.41 990.17 989.65 990.51 990.71 991.00 991.57 991.34 990.51
1014.95 1014.63 1014.33 1014.03 1013.73 1013.41 1013.17 1013.00 1012.90 1012.84 1012.85 1012.94 1012.66 1012.45 1012.61 1012.36 1010.17 1008.78 1007.77 1006.99 1006.23 1005.45 1004.79 1004.37 1004.41 1004.94 1003.73 1003.13 1002.02 1000.89 998.48 995.60 993.23 991.26 989.89 989.26 988.80 989.44 989.97 990.26 991.41 991.49 991.45 992.24 992.04 991.77 991.08
Thickness
5699 5701 5702 5704 5706 5708 5712 5715 5717 5720 5722 5726 5729 5732 5736 5740 5745 5750 5755 5757 5761 5765 5767 5770 5773 5776 5787 5803 5822 5849 5846 5842 5843 5842 5839 5841 5836 5837 5828 5847 5859 5854 5866 5874 5874 5868 5870
5697 5699 5700 5703 5705 5706 5708 5711 5714 5716 5720 5723 5726 5730 5734 5739 5744 5750 5754 5758 5761 5765 5769 5770 5773 5774 5788 5795 5858 5855 5854 5848 5848 5842 5840 5845 5845 5852 5843 5846 5856 5872 5871 5869 5873 5873 5866
5691 5693 5695 5698 5701 5704 5707 5709 5712 5714 5717 5720 5724 5728 5732 5738 5743 5749 5755 5759 5762 5766 5770 5773 5775 5778 5795 5814 5857 5855 5852 5851 5856 5849 5841 5852 5855 5846 5851 5844 5869 5867 5850 5861 5863 5869 5859
5686 5688 5691 5694 5696 5698 5700 5703 5706 5709 5712 5717 5721 5726 5730 5736 5742 5748 5754 5761 5765 5769 5773 5775 5776 5784 5798 5856 5857 5851 5850 5847 5856 5858 5852 5861 5857 5849 5846 5862 5859 5849 5854 5843 5874 5867 5866
5682 5684 5686 5688 5691 5693 5696 5698 5701 5704 5708 5713 5717 5722 5728 5735 5741 5748 5754 5761 5766 5770 5773 5774 5781 5790 5806 5849 5836 5849 5851 5839 5849 5852 5853 5855 5847 5836 5839 5826 5828 5845 5830 5846 5850 5874 5863
5679 5680 5682 5684 5685 5687 5690 5693 5696 5700 5704 5708 5713 5719 5724 5732 5739 5747 5756 5766 5769 5769 5771 5779 5788 5786 5823 5829 5848 5851 5856 5850 5839 5839 5830 5830 5828 5819 5823 5825 5804 5828 5837 5864 5855 5863 5863
5674 5675 5676 5677 5678 5680 5683 5686 5690 5695 5699 5704 5710 5715 5721 5730 5737 5743 5754 5781 5779 5777 5785 5807 5819 5824 5835 5849 5855 5838 5848 5839 5837 5827 5812 5826 5812 5809 5823 5838 5845 5859 5863 5862 5876 5879 5857
5670 5671 5672 5674 5675 5676 5677 5680 5684 5688 5693 5699 5704 5709 5716 5724 5733 5741 5745 5773 5779 5776 5783 5815 5822 5829 5839 5844 5824 5833 5849 5820 5818 5807 5817 5815 5809 5836 5843 5844 5841 5850 5857 5863 5879 5881 5864
5665 5666 5667 5669 5669 5670 5671 5673 5676 5680 5685 5690 5697 5701 5708 5719 5733 5742 5759 5765 5775 5777 5776 5817 5836 5832 5835 5836 5823 5827 5838 5826 5816 5809 5816 5815 5833 5842 5838 5836 5833 5841 5848 5863 5868 5872 5859
5658 5658 5658 5659 5662 5664 5666 5668 5671 5674 5678 5682 5688 5693 5697 5707 5731 5746 5759 5764 5765 5768 5759 5813 5821 5832 5836 5834 5817 5845 5853 5832 5818 5810 5816 5818 5843 5835 5829 5829 5838 5825 5856 5866 5871 5842 5822
5647 5648 5649 5651 5653 5656 5657 5660 5664 5667 5671 5676 5681 5686 5687 5689 5707 5730 5749 5753 5755 5752 5738 5823 5822 5854 5841 5822 5834 5833 5853 5834 5813 5816 5818 5816 5823 5829 5821 5834 5846 5835 5864 5859 5865 5862 5823
5640 5640 5640 5641 5642 5644 5647 5649 5652 5656 5660 5665 5670 5677 5679 5699 5705 5722 5731 5736 5739 5728 5739 5800 5819 5810 5811 5821 5824 5827 5828 5838 5833 5816 5821 5823 5843 5834 5838 5843 5847 5855 5850 5856 5859 5856 5828
5631 5631 5631 5630 5630 5631 5633 5636 5640 5644 5649 5654 5661 5667 5670 5675 5705 5720 5721 5722 5716 5728 5801 5796 5800 5811 5807 5809 5813 5810 5804 5805 5801 5787 5793 5811 5820 5837 5842 5820 5838 5836 5827 5803 5805 5815 5813
5620 5619 5619 5617 5616 5617 5619 5621 5624 5629 5633 5639 5648 5658 5674 5683 5692 5694 5695 5698 5705 5769 5774 5810 5806 5805 5794 5815 5810 5807 5800 5794 5810 5812 5807 5791 5786 5819 5837 5826 5818 5825 5829 5808 5779 5802 5824
5607 5606 5604 5603 5602 5601 5600 5601 5603 5607 5612 5619 5630 5658 5673 5684 5679 5676 5677 5692 5730 5747 5782 5780 5788 5782 5785 5799 5802 5800 5797 5798 5810 5812 5797 5801 5797 5832 5831 5831 5823 5824 5815 5849 5830 5846 5832
5592 5589 5587 5585 5583 5581 5580 5580 5582 5584 5588 5596 5610 5634 5659 5669 5659 5656 5662 5696 5728 5748 5763 5765 5757 5778 5771 5783 5782 5786 5795 5810 5808 5820 5825 5815 5792 5824 5827 5825 5826 5822 5849 5814 5830 5798 5801
5570 5567 5564 5561 5558 5556 5553 5553 5554 5556 5558 5569 5586 5616 5640 5641 5636 5635 5660 5690 5699 5724 5735 5731 5744 5756 5771 5775 5785 5784 5783 5803 5814 5815 5819 5811 5804 5806 5819 5813 5809 5808 5814 5832 5835 5831 5809
5548 5544 5540 5537 5533 5531 5529 5527 5527 5528 5529 5542 5562 5584 5610 5611 5605 5627 5645 5662 5676 5700 5716 5715 5724 5737 5745 5764 5763 5772 5777 5795 5821 5812 5799 5810 5799 5784 5804 5827 5828 5820 5815 5823 5813 5802 5827
5524 5520 5516 5513 5508 5504 5500 5497 5494 5495 5494 5506 5531 5557 5576 5580 5578 5600 5623 5641 5657 5667 5680 5689 5697 5711 5728 5732 5733 5754 5770 5800 5799 5795 5799 5802 5784 5771 5779 5806 5819 5805 5815 5829 5834 5838 5818
5501 5497 5492 5487 5482 5478 5474 5470 5466 5464 5464 5467 5493 5533 5561 5559 5565 5571 5584 5604 5616 5644 5647 5654 5668 5686 5698 5706 5730 5730 5747 5775 5787 5777 5778 5793 5790 5780 5783 5790 5815 5794 5801 5815 5825 5814 5816
5481 5474 5468 5461 5454 5451 5447 5443 5441 5440 5440 5439 5463 5496 5510 5527 5544 5519 5529 5545 5565 5572 5604 5620 5630 5654 5675 5685 5697 5711 5734 5754 5766 5767 5767 5776 5765 5787 5794 5807 5813 5813 5806 5809 5806 5820 5811
5458 5450 5443 5438 5432 5430 5428 5423 5419 5422 5422 5419 5437 5457 5469 5483 5498 5503 5510 5522 5542 5549 5556 5565 5596 5632 5652 5663 5686 5697 5719 5732 5744 5760 5756 5772 5757 5775 5774 5796 5797 5796 5813 5813 5809 5812 5819
5432 5426 5422 5420 5418 5417 5416 5414 5411 5408 5407 5408 5419 5429 5440 5462 5473 5489 5510 5510 5521 5540 5541 5549 5565 5560 5600 5638 5643 5665 5688 5727 5742 5741 5743 5752 5755 5752 5750 5781 5787 5771 5793 5805 5813 5820 5814
5409 5406 5406 5406 5407 5408 5408 5407 5405 5402 5401 5402 5406 5406 5422 5454 5462 5471 5477 5497 5498 5516 5516 5540 5544 5544 5570 5585 5620 5653 5673 5689 5702 5718 5738 5736 5740 5747 5747 5766 5734 5790 5809 5814 5807 5815 5823
5395 5394 5396 5398 5401 5403 5403 5402 5402 5401 5399 5398 5399 5396 5401 5428 5448 5460 5471 5480 5491 5501 5515 5520 5525 5544 5553 5573 5601 5625 5642 5653 5677 5697 5712 5733 5730 5726 5733 5746 5746 5771 5777 5785 5775 5791 5827
5392 5392 5393 5394 5397 5399 5399 5399 5399 5399 5398 5398 5401 5398 5398 5404 5437 5443 5441 5457 5477 5496 5515 5528 5529 5532 5538 5560 5573 5594 5620 5647 5656 5679 5708 5715 5722 5722 5737 5729 5738 5783 5768 5786 5789 5762 5813
5390 5389 5391 5393 5395 5396 5396 5395 5396 5396 5397 5398 5398 5397 5396 5401 5419 5430 5445 5444 5466 5467 5495 5509 5519 5522 5528 5542 5568 5591 5614 5650 5652 5668 5684 5695 5703 5704 5716 5728 5756 5763 5772 5777 5739 5755 5782
5390 5391 5392 5392 5394 5395 5394 5394 5394 5396 5396 5395 5401 5401 5397 5407 5418 5429 5443 5453 5464 5481 5484 5489 5524 5517 5526 5536 5563 5595 5617 5649 5665 5692 5698 5697 5699 5708 5718 5717 5719 5756 5758 5742 5749 5763 5775
5397 5395 5394 5393 5393 5393 5393 5393 5394 5394 5393 5393 5396 5399 5399 5400 5424 5434 5444 5455 5466 5478 5489 5497 5499 5498 5524 5535 5550 5563 5593 5631 5667 5670 5720 5708 5723 5720 5731 5733 5734 5743 5746 5751 5758 5756 5765